COSMOS 1285 DEB, 13961

Orbit data source: Space-Track

COSMOS 1285 DEB, 13961 is space debris in HEO originally from a launch on Tue, 04 Aug 1981 UTC launched from the Plesetsk Missile And Space Complex (PKMTR). Debris objects in space refer to the collection of defunct objects orbiting the Earth. Examples of debris include non-operational satellites, rocket bodies, and fragments generated from explosions, collisions, or faulty payload assembly.

Loading next visibility...
Identifier
13961, 1981-071F
Orbit
HEO
Country
Flag of CISCIS
Related business
Manufacturer
Unknown
Mission
Spacecraft
Bus & Motor
Unknown
Mass
Unknown
Launch date (UTC)
1981-08-04 (44 years ago)
Launch vehicle
Unknown
Launch site
Plesetsk Missile And Space Complex (PKMTR)
Object type
Payload
Rocket body
Debris
Shape & HBR
Unknown
Radar Cross Section
Large (>1 m²)

Expand to show TLE details & history
Last TLE update: 1 week ago

TLE from 1 week ago
0 COSMOS 1285 DEB
1 13961U 81071F   25254.26826540  .00000234  00000-0  00000-0 0  9997
2 13961  70.2189  90.5197 5691529 345.9739   3.2484  1.98122496316752
Epoch: 2025-09-11T06:26Z
TLE epoch observation values (Epoch: 2025-09-11T06:26:18.13Z)
Latitude
-0.00045°
Longitude
3.41729°
Altitude
5,299.404 km
Speed
7.307 km/s
True Right ascension
06h 02m 06s
True Declination
0° 00' 02"
Sunlit
Object was in daylight at epoch
Visualization orbit readout
Latitude
Unknown
Longitude
Unknown
Altitude
Unknown
Speed
Unknown
Apparent Right ascension
Unknown
Apparent Declination
Unknown
Sunlit
N/A
Visualization observer readout
Local Sidereal Time
15:00:29
Azimuth
Unknown
Elevation
Unknown
Doppler factor
Unknown
Orbital elements
Apogee altitude
35,639.255 km
Perigee altitude
5,158.707 km
Semi-major axis
26,777.118 km
Eccentricity
0.56915
Inclination
70.2189°
RAAN
90.5197°
Arg. of periapsis
345.9739°
True anomaly
14.28054°
Mean anomaly
3.2484°
Eccentric anomaly
7.51117°
Mean motion
0.49533 °/min
Orbital period
726.78 mins
BSTAR
0
Loading maneuver chart data...
Computing Atmospheric mass density...
Loading historical data...
Loading historical data...
Loading historical data...
Loading historical data...
Loading historical data...
Loading historical data...
Loading historical data...

Documentation

Showing up to 5 results
|